Regional Weather Roundup
Issued by NWS San Angelo, TX

Home | Current Version | Previous Version | Text Only | Print | Product List | Glossary On
Versions: 1 2 3 4 5 6 7 8 9 10 11 12 13 14 15 16 17 18 19 20 21 22 23 24 25 26 27 28 29 30 31 32 33 34 35 36 37 38 39 40 41 42 43 44 45 46 47 48 49 50
000
ASUS44 KSJT 301810
RWRSJT
WEST CENTRAL TEXAS REGIONAL WEATHER ROUNDUP
NATIONAL WEATHER SERVICE SAN ANGELO TX
100 PM CDT THU OCT 30 2014

NOTE: "FAIR" INDICATES FEW OR NO CLOUDS BELOW 12,000 FEET WITH NO
SIGNIFICANT WEATHER AND/OR OBSTRUCTIONS TO VISIBILITY.

TXZ049-054-064>066-071>073-076>078-098-099-113-114-127-128-139-140-
154-155-168>170-301900
...LOCATIONS ACROSS WEST CENTRAL TEXAS...

CITY           SKY/WX    TMP DP  RH WIND       PRES   REMARKS
SAN ANGELO     SUNNY     79  61  53 SW6       30.12F
ABILENE        SUNNY     78  60  53 S9        30.13F
DYESS AFB      SUNNY     78  61  55 VRB5      30.12F
JUNCTION       SUNNY     80  60  50 SW9       30.12F
SWEETWATER     SUNNY     75  60  59 SW6       30.18S
BROWNWOOD      SUNNY     73  61  64 S6        30.14F
COLEMAN        CLEAR     75  62  64 CALM      30.14F
SONORA         SUNNY     79  61  53 S13       30.17F
OZONA          FAIR      73  61  64 SW8       30.17F
BRADY          SUNNY     79  61  53 SE8       30.13F
$$

TEXAS PANHANDLE/OKLAHOMA PANHANDLE

CITY           SKY/WX    TMP DP  RH WIND       PRES   REMARKS
AMARILLO       SUNNY     69  30  23 NE18G26   30.27R
BORGER         SUNNY     69  28  21 NE17G23   30.27R
CANADIAN       SUNNY     71  31  23 NE17      30.22F
DALHART        SUNNY     66  25  21 NE17      30.33R
DUMAS            N/A     65  27  23 NE16      30.30S
GUYMON         NOT AVBL
HEREFORD       CLEAR     70  31  23 N22G31    30.27R
PAMPA          CLEAR     69  28  22 NE20      30.26S
PERRYTON       SUNNY     68  31  24 NE16G23   30.27S
$$

SOUTHERN PANHANDLE/SOUTH PLAINS/ROLLING PLAINS

CITY           SKY/WX    TMP DP  RH WIND       PRES   REMARKS
LUBBOCK        SUNNY     71  49  45 NE16G25   30.18S
SNYDER         MOSUNNY   70  61  74 CALM      30.16S
CHILDRESS      SUNNY     73  50  44 N10       30.18S
SEMINOLE       CLEAR     73  37  27 N8        30.19S
$$

PERMIAN BASIN

CITY           SKY/WX    TMP DP  RH WIND       PRES   REMARKS
MIDLAND        SUNNY     79  56  45 W8        30.14F
ODESSA         SUNNY     79  53  40 NW8       30.15F
WINK           SUNNY     79  49  34 NW7       30.14F
$$

FAR WEST/SOUTHWEST MOUNTAINS/TRANS PECOS

CITY           SKY/WX    TMP DP  RH WIND       PRES   REMARKS
ALPINE         CLEAR     79  38  22 NE3       30.29S
DRYDEN           N/A     75  61  61 VRB3      30.12F
EL PASO        SUNNY     73  40  30 N9        30.23F
FORT STOCKTON  SUNNY     81  54  39 N7        30.16F
GUADALUPE PASS SUNNY     69  47  45 VRB7      30.32S
MARFA          SUNNY     75  48  38 S5        30.28F
PECOS          CLEAR     74  52  47 W8        30.17S
$$

DALLAS/FORT WORTH METROPLEX

CITY           SKY/WX    TMP DP  RH WIND       PRES   REMARKS
DFW AIRPORT    MOSUNNY   74  47  38 S8        30.13F
FTW MEACHAM    SUNNY     75  52  44 S12       30.12F
DAL-EXECUTIVE  SUNNY     75  47  36 S8        30.13F
GRAND PRAIRIE  SUNNY     72  48  43 MISG      30.15F
ADDISON        SUNNY     72  46  40 S9        30.15F
MESQUITE       CLEAR     72  46  40 SW6       30.15F
LANCASTER      CLEAR     72  45  37 CALM      30.15F
$$

NORTH CENTRAL TEXAS

CITY           SKY/WX    TMP DP  RH WIND       PRES   REMARKS
SHRMAN/DENISON MOCLDY    71  50  47 S10       30.14F
GAINESVILLE    PTSUNNY   71  49  45 S9        30.15F
BRIDGEPORT     PTCLDY    76  56  50 S7        30.14F
DENTON         SUNNY     74  49  41 SW10      30.13F
WAXAHACHIE     CLEAR     73  51  45 SE7       30.15F
GRANBURY       CLEAR     74  56  53 S5        30.14F
$$

WESTERN NORTH TEXAS

CITY           SKY/WX    TMP DP  RH WIND       PRES   REMARKS
WICHITA FALLS  PTSUNNY   76  57  51 SW7       30.12F
VERNON         CLEAR     75  54  46 N6        30.15R
BRECKENRIDGE   CLEAR     79  59  51 CALM      30.12F HAZE
COMANCHE       SUNNY     77  64  62 SW7       30.14F
$$

CENTRAL AND SOUTH CENTRAL TEXAS

CITY           SKY/WX    TMP DP  RH WIND       PRES   REMARKS
AUSTIN/BERGSTM MOSUNNY   75  58  55 CALM      30.13F
WACO           PTSUNNY   70  48  45 S8        30.15F
HILLSBORO      CLEAR     73  47  39 S7        30.14F
TEMPLE         CLOUDY    70  48  46 S6        30.13F
KILLEEN-GRAY   SUNNY     73  54  50 VRB6      30.14F
FORT HOOD      SUNNY     76  54  46 VRB6      30.13F
GEORGETOWN     MOSUNNY   73  54  49 S5        30.14F
LAGO VISTA     CLOUDY    73  57  56 SW3       30.15F
SAN MARCOS     NOT AVBL
NEW BRAUNFELS  MOSUNNY   77  61  57 VRB3      30.12F
RANDOLPH AFB   SUNNY     77  63  60 E3        30.13F
SAN ANTONIO    MOSUNNY   79  62  56 VRB5      30.12F
STINSON        SUNNY     81  62  52 VRB5      30.10F
PLEASANTON     NOT AVBL
LA GRANGE      SUNNY     74  60  60 CALM      30.11F
GIDDINGS       PTCLDY    73  51  46 CALM      30.17F
$$

EAST TEXAS

CITY           SKY/WX    TMP DP  RH WIND       PRES   REMARKS
PARIS          SUNNY     72  43  35 SW9       30.15F
CLARKSVILLE    NOT AVBL
TYLER          SUNNY     71  45  39 S8        30.15F
LONGVIEW       SUNNY     71  41  33 S6        30.15F
PALESTINE      CLEAR     71  47  43 CALM      30.17F
NACOGDOCHES    SUNNY     70  45  40 SE6       30.16F
$$

TEXAS HILL COUNTRY AND EDWARDS PLATEAU

CITY           SKY/WX    TMP DP  RH WIND       PRES   REMARKS
LLANO          MOCLDY    73  63  68 E5        30.17F
HORSESHOE BAY  CLOUDY    72  62  69 SW6       30.15F
KERRVILLE      SUNNY     76  63  62 SE8       30.14F
FREDERICKSBRG  MOSUNNY   73  63  71 E3        30.15F
ROCKSPRINGS    CLEAR     79  61  53 MISG      30.17F
HONDO          SUNNY     75  62  64 SE5       30.14F
UVALDE         CLEAR     78  65  64 CALM      30.12F
DEL RIO        SUNNY     80  65  59 SE9       30.09F
$$

SOUTHEAST TEXAS

CITY           SKY/WX    TMP DP  RH WIND       PRES   REMARKS
COLLEGE STN    SUNNY     73  48  41 CALM      30.14F
CALDWELL       CLEAR     73  48  40 CALM      30.17F
CROCKETT       CLEAR     73  48  40 SW3       30.17F
BRENHAM        SUNNY     76  51  41 CALM      30.13F
HUNTSVILLE     SUNNY     74  46  36 CALM      30.14F
CONROE         SUNNY     73  47  39 E5        30.14F
HOUSTON BUSH   MOSUNNY   74  51  44 E3        30.13F
HOUSTON HOBBY  SUNNY     76  56  49 E3        30.11F
PERLAND        SUNNY     76  58  53 NE7       30.13F
WHARTON        MOCLDY    77  62  60 N3        30.12F
$$

THE UPPER TEXAS COAST

CITY           SKY/WX    TMP DP  RH WIND       PRES   REMARKS
ORANGE         CLEAR     73  46  38 E6        30.14F
PORT ARTHUR    SUNNY     75  46  35 NE7       30.12F
GALVESTON      MOSUNNY   76  63  64 N9        30.12F
ANGLETON       CLOUDY    75  63  66 NE3       30.11F
BAY CITY         N/A     77  65  66 N3        30.11F
$$

TEXAS COASTAL BEND, RIO GRANDE PLAINS DEEP SOUTH TEXAS

CITY           SKY/WX    TMP DP  RH WIND       PRES   REMARKS
VICTORIA       MOSUNNY   81  65  58 VRB3      30.11F
BEEVILLE       MOCLDY    82  67  59 CALM      30.09F
ROCKPORT       SUNNY     82  71  69 E12       30.08F
PORT ARANSAS   PTCLDY    81  70  70 E9        30.08F
PORT LAVACA    CLOUDY    77  67  71 NE8       30.11F
CORPUS CHRISTI PTSUNNY   82  69  64 NE8       30.08F
KINGSVILLE NAS MOSUNNY   83  70  64 CALM      30.07F
COTULLA        SUNNY     84  63  49 S7        30.09F
LAREDO         SUNNY     85  63  47 SE8       30.10F
BROWNSVILLE    PTSUNNY   86  66  51 MISG      30.07F
PORT ISABEL    SUNNY     84  65  52 E6        30.07F
HEBBRONVILLE   PTCLDY    81  63  53 SE5       30.10F
MCALLEN        MOSUNNY   85  67  54 CALM      30.08F
WESLACO        SUNNY     86  65  50 SE6       30.07F
FALFURRIAS     PTCLDY    82  67  60 CALM      30.08F
EDINBURG       MOCLDY    87  65  46 CALM      30.08F
$$



USA.gov is the U.S. government's official web portal to all federal, state and local government web resources and services.